Simultaneous Nadir Overpasses (SNOs) Predictions

Prediction of SNOs near equator between AQUA and NPP Satellite Orbit:

Table of predicted SNOs near equator for the next 14.0 days since TLE Epoch: 1/30/2016
Index Date (AQUA) Time (AQUA) AQUA Lat,Lon Date (NPP) Time (NPP) NPP Lat,Lon Distance(km) Time Diff (sec)
1 02/01/2016 23:22:12 -14.28, 31.26 02/01/2016 23:12:48 -14.28, 31.25 0.17 564
2 02/02/2016 00:07:42 -0.26,-157.99 02/01/2016 23:59:29 -0.32,-158.15 18.93 493
3 02/02/2016 00:55:50 4.75, 10.63 02/02/2016 00:48:52 4.87, 10.20 48.80 418
4 02/02/2016 01:44:04 -9.38, 179.25 02/02/2016 01:38:22 -9.53, 178.55 77.98 342
5 02/04/2016 14:53:38 29.95, -24.25 02/04/2016 14:43:38 30.58, -24.40 71.24 600
6 02/04/2016 15:35:42 -3.51, 149.48 02/04/2016 15:26:37 -3.51, 149.48 0.71 545
7 02/04/2016 16:23:47 -1.67, -41.80 02/04/2016 16:15:57 -1.75, -42.05 29.06 470
8 02/04/2016 17:11:55 6.16, 126.82 02/04/2016 17:05:20 6.30, 126.30 58.79 395
9 02/04/2016 18:00:09 -10.79, -64.56 02/04/2016 17:54:50 -10.96, -65.34 87.62 319
10 02/07/2016 07:08:05 22.66, 93.45 02/07/2016 06:58:15 22.66, 93.46 0.76 590
11 02/07/2016 07:51:37 -1.51, -94.21 02/07/2016 07:42:55 -1.49, -94.29 8.94 522
12 02/07/2016 08:39:51 -3.13, 74.40 02/07/2016 08:32:25 -3.18, 74.05 39.28 446
13 02/07/2016 09:27:59 7.62,-116.98 02/07/2016 09:21:48 7.73,-117.60 68.76 371
14 02/07/2016 10:16:15 -12.13, 51.62 02/07/2016 10:11:19 -12.33, 50.75 97.31 296
15 02/09/2016 23:21:55 13.20,-148.50 02/09/2016 23:12:25 13.20,-148.49 0.64 570
16 02/10/2016 00:07:41 -0.13, 21.97 02/09/2016 23:59:22 -0.07, 21.81 19.48 499
17 02/10/2016 00:55:55 -4.51,-169.42 02/10/2016 00:48:52 -4.60,-169.86 49.50 423
18 02/10/2016 01:44:03 9.00, -0.80 02/10/2016 01:38:15 9.15, -1.50 78.70 348
19 02/12/2016 15:35:39 3.31, -30.47 02/12/2016 15:26:29 3.31, -30.47 0.19 550
20 02/12/2016 16:23:45 1.30, 138.16 02/12/2016 16:15:50 1.35, 137.90 29.83 475
21 02/12/2016 17:11:59 -5.94, -53.23 02/12/2016 17:05:20 -6.02, -53.76 59.87 399
22 02/12/2016 18:00:07 10.43, 115.40 02/12/2016 17:54:43 10.57, 114.60 88.67 324




NCC Satellite Simultaneous Nadir Overpasses (SNOs) Prediction Service
